This is the latest recevied weather packets stored in our database for station/object KM4KMO-14. If no packets are shown the sender has not sent any weather packets the latest 10 day(s).
| Time | Temp. | Humidity | Pressure | Rain* | Wind** | Luminosity | Snow |
|---|---|---|---|---|---|---|---|
| 1777888640 | 8.33° C | 85% | 1014.4 hPa | 0 mm | - | - | - |
| 1777887741 | 8.33° C | 85% | 1014.5 hPa | 0 mm | - | - | - |
| 1777886840 | 8.89° C | 85% | 1014.5 hPa | 0 mm | - | - | - |
| 1777885941 | 8.89° C | 83% | 1014.5 hPa | 0 mm | - | - | - |
| 1777885040 | 8.89° C | 84% | 1014.4 hPa | 0 mm | - | - | - |
| 1777884141 | 8.89° C | 82% | 1014.5 hPa | 0 mm | - | - | - |
| 1777883241 | 8.89° C | 81% | 1014.3 hPa | 0 mm | - | - | - |
| 1777882341 | 8.89° C | 80% | 1014.3 hPa | 0 mm | - | - | - |
| 1777881441 | 9.44° C | 79% | 1014.2 hPa | 0 mm | - | - | - |
| 1777880541 | 10° C | 78% | 1014.1 hPa | 0 mm | - | - | - |
| 1777879641 | 10° C | 78% | 1014 hPa | 0 mm | - | - | - |
| 1777878741 | 10° C | 78% | 1014.1 hPa | 0 mm | - | - | - |
| 1777877841 | 10.56° C | 74% | 1014.2 hPa | 0 mm | - | - | - |
| 1777876941 | 11.11° C | 73% | 1014.3 hPa | 0 mm | - | - | - |
| 1777876041 | 11.11° C | 73% | 1014.5 hPa | 0 mm | - | - | - |
| 1777875141 | 11.11° C | 74% | 1014.7 hPa | 0 mm | - | - | - |
| 1777874241 | 11.11° C | 74% | 1014.9 hPa | 0 mm | - | - | - |
| 1777873341 | 11.11° C | 75% | 1014.8 hPa | 0 mm | - | - | - |
| 1777872441 | 11.11° C | 77% | 1014.8 hPa | 0 mm | - | - | - |
| 1777871541 | 11.11° C | 78% | 1014.9 hPa | 0 mm | - | - | - |
| 1777870641 | 11.11° C | 77% | 1014.9 hPa | 0 mm | - | - | - |
| 1777869741 | 11.67° C | 76% | 1015.1 hPa | 0 mm | - | - | - |
| 1777868841 | 11.67° C | 74% | 1015 hPa | 0 mm | - | - | - |
| 1777867941 | 12.22° C | 72% | 1015.1 hPa | 0 mm | - | - | - |
| 1777867041 | 12.78° C | 70% | 1015 hPa | 0 mm | - | - | - |
* Rain latest hour (hover to see other rain measurements)
** Current wind speed in m/s (hover to see current wind gust speed)